Renton, WA

12:17 PM PDT on July 28, 2016 (GMT -0700)
Renton Municipal

Weather History for KRNT - October, 2012

Change the Weather History Date:

Thursday, October 18, 2012

  Actual Average Record
Temperature  
Mean Temperature 56 °F -  
Max Temperature 66 °F 58 °F 68 °F (1999)
Min Temperature 45 °F 45 °F 39 °F (2010)
Degree Days  
Heating Degree Days 10    
Growing Degree Days 6 (Base 50)    
Moisture  
Dew Point 46 °F    
Average Humidity 75    
Maximum Humidity 97    
Minimum Humidity 42    
Precipitation  
Precipitation 0.64 in - - ()
Sea Level Pressure  
Sea Level Pressure 29.99 in    
Wind  
Wind Speed 2 mph (SSE)    
Max Wind Speed 8 mph    
Max Gust Speed -    
Visibility 8 miles    
Events Rain    
Averages and records for this station are not official NWS values.
T = Trace of Precipitation, MM = Missing Value Source: NWS Daily Summary

Daily Weather History Graph

Daily Weather History Graph

Search for Another Location

Airport or City:

Trip Planner

Search our weather history database for the weather conditions in past years. The results will help you decide how hot, cold, wet, or windy it might be!

Date:

Astronomy

Oct. 18, 2012 Rise Set
Actual Time 7:32 AM PDT 6:14 PM PDT
Civil Twilight 7:01 AM PDT 6:45 PM PDT
Nautical Twilight 6:25 AM PDT 7:21 PM PDT
Astronomical Twilight 5:50 AM PDT 7:56 PM PDT
Moon 11:35 AM PDT (10/18) 8:38 PM PDT (10/18)
Length of Visible Light 11h 43m
Length of Day
10h 41m
Waxing Crescent, 15% of the Moon is Illuminated
Oct 18
Waxing Crescent
Oct 21
First Quarter
Oct 29
Full
Nov 6
Last Quarter
Nov 13
New

Hourly Weather History & Observations

Time (PDT) Temp. Dew Point Humidity Pressure Visibility Wind Dir Wind Speed Gust Speed Precip Events Conditions
12:53 AM 50.0 °F 45.0 °F 83% 30.23 in 10.0 mi Calm Calm - N/A   Clear
1:53 AM 48.9 °F 45.0 °F 86% 30.23 in 10.0 mi SE 3.5 mph - N/A   Mostly Cloudy
2:53 AM 48.9 °F 45.0 °F 86% 30.22 in 10.0 mi Calm Calm - N/A   Partly Cloudy
3:53 AM 48.0 °F 44.1 °F 86% 30.20 in 10.0 mi Calm Calm - N/A   Partly Cloudy
4:53 AM 46.9 °F 44.1 °F 90% 30.18 in 10.0 mi Calm Calm - N/A   Clear
5:53 AM 46.9 °F 43.0 °F 86% 30.16 in 10.0 mi Calm Calm - N/A   Clear
6:53 AM 46.0 °F 42.1 °F 86% 30.13 in 10.0 mi Calm Calm - N/A   Clear
7:53 AM 45.0 °F 42.1 °F 90% 30.11 in 10.0 mi Calm Calm - N/A   Clear
8:53 AM 46.9 °F 43.0 °F 86% 30.11 in 10.0 mi Calm Calm - N/A   Clear
9:53 AM 50.0 °F 45.0 °F 83% 30.09 in 10.0 mi SSE 3.5 mph - N/A   Clear
10:53 AM 55.9 °F 43.0 °F 62% 30.05 in 10.0 mi South 6.9 mph - N/A   Clear
11:53 AM 59.0 °F 44.1 °F 58% 30.01 in 10.0 mi South 5.8 mph - N/A   Clear
12:53 PM 62.1 °F 43.0 °F 50% 29.97 in 10.0 mi South 8.1 mph - N/A   Clear
1:53 PM 66.0 °F 44.1 °F 45% 29.94 in 10.0 mi South 3.5 mph - N/A   Clear
2:53 PM 66.9 °F 45.0 °F 45% 29.91 in 10.0 mi Calm Calm - N/A   Clear
3:53 PM 66.0 °F 43.0 °F 43% 29.89 in 10.0 mi South 4.6 mph - N/A   Clear
4:53 PM 64.9 °F 41.0 °F 42% 29.88 in 10.0 mi SSE 6.9 mph - N/A   Mostly Cloudy
5:53 PM 63.0 °F 42.1 °F 46% 29.85 in 10.0 mi Calm Calm - N/A   Overcast
6:53 PM 62.1 °F 44.1 °F 52% 29.85 in 10.0 mi SSW 3.5 mph - N/A   Overcast
7:53 PM 57.0 °F 50.0 °F 77% 29.86 in 5.0 mi ESE 3.5 mph - 0.07 in Rain Rain
8:51 PM 53.6 °F 50.0 °F 88% 29.86 in 2.0 mi SSE 6.9 mph - 0.24 in Rain Heavy Rain
8:53 PM 54.0 °F 50.0 °F 86% 29.88 in 2.5 mi SSE 6.9 mph - 0.24 in Rain Heavy Rain
9:53 PM 53.1 °F 51.1 °F 93% 29.84 in 4.0 mi SE 5.8 mph - 0.19 in Rain Rain
10:08 PM 53.6 °F 51.8 °F 94% 29.82 in 5.0 mi SSE 6.9 mph - 0.03 in Rain Light Rain
10:53 PM 55.0 °F 53.1 °F 93% 29.84 in 3.0 mi SSE 4.6 mph - 0.10 in Rain Rain
11:23 PM 55.4 °F 53.6 °F 94% 29.82 in 10.0 mi South 3.5 mph - 0.00 in   Overcast
11:53 PM 54.0 °F 53.1 °F 97% 29.85 in 3.0 mi SE 3.5 mph - 0.04 in Rain Light Rain